Atka, AK

10:19 AM HST on November 17, 2017 (GMT -1000)
Atka

Weather History for PAAK - November, 2012

Change the Weather History Date:

Thursday, November 29, 2012

  Actual Average (PADK) Record (PADK)
Temperature  
Mean Temperature 34 °F -  
Max Temperature 39 °F 39 °F 54 °F (1961)
Min Temperature 28 °F 30 °F 12 °F (1969)
Degree Days  
Heating Degree Days 32    
Moisture  
Dew Point -12 °F    
Average Humidity 12    
Maximum Humidity 13    
Minimum Humidity 11    
Precipitation  
Precipitation 0.00 in - - ()
Sea Level Pressure  
Sea Level Pressure 30.10 in    
Wind  
Wind Speed 14 mph (East)    
Max Wind Speed 21 mph    
Max Gust Speed 30 mph    
Visibility 10 miles    
Events      
Averages and records for this station are not official NWS values.
T = Trace of Precipitation, MM = Missing Value Source: NWS Daily Summary

Daily Weather History Graph

Daily Weather History Graph

Search for Another Location

Airport or City:

Trip Planner

Search our weather history database for the weather conditions in past years. The results will help you decide how hot, cold, wet, or windy it might be!

Date:

Astronomy

Nov. 29, 2012 Rise Set
Actual Time 9:21 AM HST 5:28 PM HST
Civil Twilight 8:42 AM HST 6:08 PM HST
Nautical Twilight 7:59 AM HST 6:51 PM HST
Astronomical Twilight 7:18 AM HST 7:32 PM HST
Moon 6:43 PM HST (11/29) 10:20 AM HST (11/29)
Length of Visible Light 9h 26m
Length of Day
8h 07m
Full, 98% of the Moon is Illuminated
Nov 29
Full
Dec 6
Last Quarter
Dec 12
New
Dec 19
First Quarter
Dec 28
Full

Hourly Weather History & Observations

Time (HST) Temp. Windchill Dew Point Humidity Pressure Visibility Wind Dir Wind Speed Gust Speed Precip Events Conditions
12:16 AM 37.4 °F 29.3 °F -11.2 °F 12% 30.14 in 10.0 mi ESE 12.7 mph - N/A   Overcast
12:36 AM 37.4 °F 29.8 °F -11.2 °F 12% 30.14 in 10.0 mi East 11.5 mph - N/A   Overcast
12:56 AM 37.4 °F 29.3 °F -11.2 °F 12% 30.14 in 10.0 mi East 12.7 mph - N/A   Overcast
1:16 AM 37.4 °F 30.3 °F -11.2 °F 12% 30.14 in 10.0 mi East 10.4 mph - N/A   Overcast
1:36 AM 37.4 °F 30.8 °F -11.2 °F 12% 30.14 in 10.0 mi East 9.2 mph - N/A   Overcast
1:56 AM 37.4 °F 30.3 °F -11.2 °F 12% 30.14 in 10.0 mi East 10.4 mph - N/A   Overcast
2:16 AM 37.4 °F 28.9 °F -11.2 °F 12% 30.13 in 10.0 mi East 13.8 mph - N/A   Overcast
2:36 AM 37.4 °F 28.9 °F -11.2 °F 12% 30.12 in 10.0 mi East 13.8 mph - N/A   Overcast
2:56 AM 37.4 °F 29.3 °F -11.2 °F 12% 30.12 in 10.0 mi East 12.7 mph - N/A   Overcast
3:16 AM 37.4 °F 30.3 °F -11.2 °F 12% 30.12 in 10.0 mi East 10.4 mph - N/A   Overcast
3:36 AM 39.2 °F 32.5 °F -11.2 °F 11% 30.12 in 10.0 mi East 10.4 mph - N/A   Overcast
3:56 AM 39.2 °F 31.6 °F -11.2 °F 11% 30.12 in 10.0 mi East 12.7 mph - N/A   Overcast
4:16 AM 39.2 °F 31.6 °F -11.2 °F 11% 30.11 in 10.0 mi East 12.7 mph - N/A   Overcast
4:36 AM 39.2 °F 30.8 °F -11.2 °F 11% 30.11 in 10.0 mi East 15.0 mph - N/A   Overcast
4:56 AM 39.2 °F 30.8 °F -11.2 °F 11% 30.10 in 10.0 mi East 15.0 mph 21.9 mph N/A   Overcast
5:16 AM 39.2 °F 31.2 °F -11.2 °F 11% 30.10 in 10.0 mi East 13.8 mph 18.4 mph N/A   Overcast
5:36 AM 39.2 °F 29.8 °F -11.2 °F 11% 30.10 in 10.0 mi East 18.4 mph - N/A   Overcast
5:56 AM 39.2 °F 30.5 °F -11.2 °F 11% 30.10 in 10.0 mi East 16.1 mph - N/A   Overcast
6:16 AM 39.2 °F 31.2 °F -11.2 °F 11% 30.10 in 10.0 mi East 13.8 mph 21.9 mph N/A   Overcast
6:36 AM 39.2 °F 30.2 °F -11.2 °F 11% 30.10 in 10.0 mi East 17.3 mph 20.7 mph N/A   Overcast
6:56 AM 39.2 °F 30.2 °F -11.2 °F 11% 30.09 in 10.0 mi East 17.3 mph 23.0 mph N/A   Overcast
7:16 AM 39.2 °F 30.2 °F -11.2 °F 11% 30.10 in 10.0 mi East 17.3 mph 21.9 mph N/A   Overcast
7:36 AM 37.4 °F 28.2 °F -11.2 °F 12% 30.10 in 10.0 mi East 16.1 mph 25.3 mph N/A   Overcast
7:56 AM 37.4 °F 27.8 °F -11.2 °F 12% 30.10 in 10.0 mi East 17.3 mph 26.5 mph N/A   Overcast
8:16 AM 37.4 °F 26.9 °F -11.2 °F 12% 30.10 in 10.0 mi East 20.7 mph 24.2 mph N/A   Overcast
8:36 AM 37.4 °F 28.2 °F -11.2 °F 12% 30.10 in 10.0 mi ENE 16.1 mph 24.2 mph N/A   Overcast
8:56 AM 37.4 °F 27.5 °F -11.2 °F 12% 30.09 in 10.0 mi East 18.4 mph 23.0 mph N/A   Overcast
9:16 AM 37.4 °F 27.2 °F -11.2 °F 12% 30.10 in 10.0 mi East 19.6 mph 26.5 mph N/A   Overcast
9:36 AM 37.4 °F 28.2 °F -11.2 °F 12% 30.10 in 10.0 mi East 16.1 mph 26.5 mph N/A   Overcast
9:56 AM 37.4 °F 26.9 °F -11.2 °F 12% 30.09 in 10.0 mi East 20.7 mph - N/A   Overcast
10:16 AM 37.4 °F 26.9 °F -11.2 °F 12% 30.09 in 10.0 mi East 20.7 mph 25.3 mph N/A   Mostly Cloudy
10:36 AM 37.4 °F 26.9 °F -11.2 °F 12% 30.10 in 10.0 mi East 20.7 mph 25.3 mph N/A   Overcast
10:56 AM 37.4 °F 27.5 °F -11.2 °F 12% 30.10 in 10.0 mi East 18.4 mph 25.3 mph N/A   Overcast
11:16 AM 37.4 °F 27.8 °F -11.2 °F 12% 30.11 in 10.0 mi East 17.3 mph 29.9 mph N/A   Overcast
11:36 AM 37.4 °F 28.2 °F -11.2 °F 12% 30.11 in 10.0 mi East 16.1 mph 20.7 mph N/A   Overcast
11:56 AM 37.4 °F 27.5 °F -11.2 °F 12% 30.11 in 10.0 mi East 18.4 mph 21.9 mph N/A   Overcast
12:16 PM 37.4 °F 27.2 °F -11.2 °F 12% 30.10 in 10.0 mi East 19.6 mph - N/A   Overcast
12:36 PM 37.4 °F 28.5 °F -11.2 °F 12% 30.10 in 10.0 mi East 15.0 mph 24.2 mph N/A   Overcast
12:56 PM 37.4 °F 27.5 °F -11.2 °F 12% 30.09 in 10.0 mi East 18.4 mph 21.9 mph N/A   Overcast
1:16 PM 37.4 °F 27.5 °F -11.2 °F 12% 30.09 in 10.0 mi East 18.4 mph 24.2 mph N/A   Overcast
1:36 PM 37.4 °F 27.2 °F -11.2 °F 12% 30.09 in 8.0 mi East 19.6 mph 25.3 mph N/A   Overcast
1:56 PM 37.4 °F 27.8 °F -11.2 °F 12% 30.08 in 10.0 mi East 17.3 mph - N/A   Mostly Cloudy
2:16 PM 37.4 °F 28.2 °F -11.2 °F 12% 30.08 in 10.0 mi ESE 16.1 mph - N/A   Partly Cloudy
2:36 PM 37.4 °F 27.8 °F -11.2 °F 12% 30.08 in 10.0 mi East 17.3 mph - N/A   Partly Cloudy
2:56 PM 39.2 °F 29.8 °F -11.2 °F 11% 30.08 in 10.0 mi East 18.4 mph 21.9 mph N/A   Scattered Clouds
3:16 PM 39.2 °F 29.6 °F -11.2 °F 11% 30.08 in 10.0 mi East 19.6 mph - N/A   Mostly Cloudy
3:36 PM 37.4 °F 28.2 °F -11.2 °F 12% 30.08 in 10.0 mi East 16.1 mph - N/A   Overcast
3:56 PM 37.4 °F 28.5 °F -11.2 °F 12% 30.08 in 10.0 mi East 15.0 mph 19.6 mph N/A   Scattered Clouds
4:16 PM 37.4 °F 28.5 °F -11.2 °F 12% 30.08 in 10.0 mi East 15.0 mph 18.4 mph N/A   Scattered Clouds
4:36 PM 37.4 °F 27.8 °F -11.2 °F 12% 30.08 in 10.0 mi East 17.3 mph - N/A   Partly Cloudy
4:56 PM 37.4 °F 28.9 °F -11.2 °F 12% 30.09 in 10.0 mi East 13.8 mph 18.4 mph N/A   Scattered Clouds
5:16 PM 37.4 °F 28.2 °F -11.2 °F 12% 30.09 in 10.0 mi East 16.1 mph - N/A   Clear
5:36 PM 37.4 °F 28.5 °F -11.2 °F 12% 30.08 in 10.0 mi East 15.0 mph 21.9 mph N/A   Clear
5:56 PM 37.4 °F 30.8 °F -13.0 °F 11% 30.08 in 10.0 mi East 9.2 mph 21.9 mph N/A   Partly Cloudy
6:16 PM 35.6 °F 25.9 °F -13.0 °F 12% 30.08 in 10.0 mi East 16.1 mph 26.5 mph N/A   Clear
6:36 PM 37.4 °F 30.3 °F -13.0 °F 11% 30.09 in 10.0 mi East 10.4 mph 19.6 mph N/A   Scattered Clouds
6:56 PM 35.6 °F 26.6 °F -13.0 °F 12% 30.08 in 10.0 mi East 13.8 mph 19.6 mph N/A   Partly Cloudy
7:16 PM 35.6 °F 30.7 °F -13.0 °F 12% 30.09 in 10.0 mi ENE 5.8 mph - N/A   Clear
7:36 PM 35.6 °F 26.6 °F - N/A% 30.09 in 10.0 mi East 13.8 mph 18.4 mph N/A   Partly Cloudy
7:56 PM 35.6 °F 25.9 °F -13.0 °F 12% 30.08 in 10.0 mi East 16.1 mph 24.2 mph N/A   Clear
8:16 PM 35.6 °F 28.6 °F -13.0 °F 12% 30.09 in 10.0 mi East 9.2 mph 20.7 mph N/A   Clear
8:36 PM 33.8 °F 28.6 °F -14.8 °F 12% 30.08 in 10.0 mi North 5.8 mph - N/A   Clear
8:56 PM 30.2 °F - -16.6 °F 13% 30.08 in 10.0 mi Calm Calm - N/A   Clear
9:16 PM 28.4 °F - -18.4 °F 12% 30.08 in 10.0 mi Calm Calm - N/A   Clear
9:36 PM 30.2 °F 26.7 °F -18.4 °F 11% 30.08 in 10.0 mi NNW 3.5 mph - N/A   Clear
9:56 PM 28.4 °F - -16.6 °F 13% 30.09 in 10.0 mi Calm Calm - N/A   Clear
10:16 PM 28.4 °F - -18.4 °F 12% 30.09 in 10.0 mi Calm Calm - N/A   Clear
10:36 PM 28.4 °F 24.6 °F -18.4 °F 12% 30.09 in 10.0 mi North 3.5 mph - N/A   Clear
10:56 PM 28.4 °F 24.6 °F -18.4 °F 12% 30.10 in 10.0 mi South 3.5 mph - N/A   Clear
11:16 PM 30.2 °F 21.9 °F -16.6 °F 13% 30.09 in 10.0 mi ESE 9.2 mph - N/A   Clear
11:36 PM 33.8 °F 25.8 °F -14.8 °F 12% 30.10 in 10.0 mi SE 10.4 mph - N/A   Clear
11:56 PM 35.6 °F 27.5 °F -13.0 °F 12% 30.09 in 10.0 mi ESE 11.5 mph 19.6 mph N/A   Clear